Regional Weather Roundup
Issued by NWS State College, PA

Home | Current Version | Previous Version | Graphics & Text | Print | Product List | Glossary Off
Versions: 1 2 3 4 5 6 7 8 9 10 11 12 13 14 15 16 17 18 19 20 21 22 23 24 25 26 27 28 29 30 31 32 33 34 35 36 37 38 39 40 41 42 43 44 45 46 47 48 49 50

000
ASUS41 KCTP 041303
RWRCTP

REGIONAL WEATHER ROUNDUP
NATIONAL WEATHER SERVICE STATE COLLEGE PA
900 AM EDT FRI SEP 04 2015

Note: "fair" indicates few or no clouds below 12,000 feet with no
significant weather and/or obstructions to visibility.

* = STATION THAT DOES NOT REPORT PRECIPITATION /E.G. RAIN...SNOW...ETC/
    THUNDER OR FOG.

PAZ002>004-007>009-013>016-020>023-029>032-041400-
WESTERN PENNSYLVANIA

CITY           SKY/WX    TMP DP  RH WIND       PRES   REMARKS
ERIE           PTSUNNY   72  67  84 S3        30.06R HAZE
MEADVILLE      FOG       68  66  93 S6        30.09R VSB 1/2
FRANKLIN*      MOSUNNY   70  66  88 CALM      30.11R
NEW CASTLE     FAIR      74  69  84 CALM      30.10R
BEAVER COUNTY  SUNNY     72  64  78 CALM      30.08R
BUTLER*        MOSUNNY   70  66  88 SE6       30.10R
PITTSBURGH INT PTSUNNY   72  65  78 CALM      30.08R
PITTSBURGH     SUNNY     70  64  81 SE5       30.09R HAZE
INDIANA*       MOSUNNY   70  68  94 SW5       30.13S FOG
LATROBE          N/A     70  70 100 CALM      30.10S THUNDER FOG
WASHINGTON CO* MOSUNNY   68  66  94 CALM      30.10R
$$

PAZ004>006-010>012-017>019-024>028-033>037-041-042-045-046-049>053-041400-
CENTRAL PENNSYLVANIA

CITY           SKY/WX    TMP DP  RH WIND       PRES   REMARKS
BRADFORD       CLOUDY    66  64  94 SE5       30.13R FOG
DUBOIS         SUNNY     70  65  84 E5        30.11R HAZE
CLEARFIELD     CLOUDY    66  63  90 CALM      30.12R FOG
JOHNSTOWN      SUNNY     69  65  86 W3        30.13S FOG
ALTOONA        SUNNY     72  66  81 CALM      30.10S HAZE
STATE COLLEGE  SUNNY     70  66  88 CALM      30.11R
WILLIAMSPORT   CLOUDY    70  67  90 W3        30.06R FOG
SELINSGROVE    MOSUNNY   71  70  96 CALM      30.06R FOG
FT INDIANTOWN  SUNNY     79  68  69 VRB3      30.04R
CAPITAL CITY   SUNNY     78  69  73 VRB3      30.03R
HARRISBURG     SUNNY     78  69  73 NW6       30.03R
YORK           SUNNY     77  69  76 NE5       30.04R
$$

PAZ038>040-043-044-047-048-054-055-060>062-067>071-041400-
EASTERN PENNSYLVANIA

CITY           SKY/WX    TMP DP  RH WIND       PRES   REMARKS
SCRANTON       SUNNY     72  66  81 CALM      30.08R
MOUNT POCONO   SUNNY     71  64  78 E13       30.12R
ALLENTOWN      SUNNY     76  67  73 NE9       30.04R
QUAKERTOWN*    SUNNY     75  68  78 NE6       30.05R
READING        SUNNY     77  67  71 N5        30.02R
LANCASTER      SUNNY     77  68  73 NE6       30.03R
COATESVILLE    SUNNY     75  68  78 NE5       30.04R
POTTSTOWN      SUNNY     75  69  81 NE7       30.04R
BLUE BELL      SUNNY     79  70  73 E7        30.02R
DOYLESTOWN     SUNNY     75  67  76 NE8       30.02S
WILLOW GROVE   NOT AVBL
NORTH PHILA    SUNNY     80  66  62 NE9       30.03R
PHILADELPHIA   MOSUNNY   82  68  62 NE9       30.01R
$$


USA.gov is the U.S. government's official web portal to all federal, state and local government web resources and services.